Content
SEND FEEDBACK

Daily
Averages
Monthly
Summary
Canada

LEADER, SASKATCHEWAN


Home > North America > Canada > Saskatchewan
Elevation: 2201 feet     Latitude: 50 52N     Longitude: 109 33W

WEATHER
 
SELECT A DAY
Number of Records: 139,414;   Date Range: 1/1/95 - 8/19/14
 
SHARE

PRINT THIS DATA

[ ← Previous Day ]
WEATHER ALMANAC - JANUARY 31, 2013
[ Next Day → ]
[ °C ]   °F
Weather ElementAverageHighLow
Temperature-7 °F13.1 °F (11:00 pm)-25.2 °F (5:00 am)
Dewpoint-12.8 °F9.1 °F (11:00 pm)-32.4 °F (5:00 am)
Humidity74.5 %84 % (11:00 pm)57 % (6:00 am)
Barometer30.33 in30.53 in (1:00 am)30.02 in (11:00 pm)
Wind Speed6.9 mph12.7 mph (1:00 pm)
Weather ElementAverage
Wind DirectionSSW (188.1 °)

Weather ElementTotal
Precipitation---
Heating Degree Days71.1 (Base 65)
Averaged from 27 records on January 31, 2013
WEATHER CONDITIONS BREAKOUT
WIND DIRECTION BREAKOUT
WEATHER BY HOUR - JANUARY 31, 2013
[ °C ]   °F
Local TimeTemperatureDewpointHumidityBarometerVisibilityWind DirectionWind SpeedGust SpeedPrecipitationEventsConditions
12:00 AM-18.6 °F-25.8 °F70 %30.51 inWest (260°)3.5 mph
1:00 AM-19.7 °F-26.9 °F69 %30.53 inNW (310°)5.8 mph
2:00 AM-20.7 °F-28.1 °F69 %30.50 inNW (310°)5.8 mph
3:00 AM-24.0 °F-31.5 °F68 %30.53 inWest (280°)3.5 mph
4:00 AM-23.8 °F-30.6 °F70 %30.53 inWSW (240°)3.5 mph
5:00 AM-25.2 °F-32.4 °F69 %30.52 inSouth (190°)6.9 mph
6:00 AM-18.4 °F-24.7 °F73 %30.51 inSouth (180°)5.8 mph
6:00 AM-18.0 °F-25.0 °F57 %30.51 inSouth (180°)5.8 mph
7:00 AM-14.6 °F-21.1 °F73 %30.47 inSouth (170°)6.9 mph
8:00 AM-13.7 °F-20.4 °F72 %30.45 inSouth (170°)9.2 mph
9:00 AM-12.6 °F-18.9 °F73 %30.43 inSouth (170°)9.2 mph
10:00 AM-11.4 °F-17.7 °F74 %30.41 inSSE (160°)11.5 mph
11:00 AM-8.7 °F-14.3 °F77 %30.39 inSSE (160°)9.2 mph
12:00 PM-7.4 °F-12.8 °F77 %30.35 inSSE (160°)10.4 mph
12:00 PM-7.0 °F-13.0 °F64 %30.35 inSSE (160°)10.4 mph
1:00 PM-5.6 °F-10.8 °F78 %30.31 inSSE (150°)12.7 mph
2:00 PM-3.1 °F-8.0 °F80 %30.27 inSSE (160°)12.7 mph
3:00 PM0.3 °F-4.2 °F81 %30.25 inSSE (160°)8.1 mph
4:00 PM2.3 °F-2.9 °F79 %30.22 inSE (140°)8.1 mph
5:00 PM3.9 °F-1.3 °F79 %30.19 inSE (140°)4.6 mph
6:00 PM2.8 °F-2.4 °F79 %30.14 inSouth (180°)8.1 mph
6:00 PM3.0 °F-2.0 °F68 %30.14 inSouth (180°)8.1 mph
7:00 PM6.3 °F1.8 °F82 %30.12 inSSE (150°)3.5 mph
8:00 PM8.4 °F4.1 °F83 %30.10 inSE (140°)3.5 mph
9:00 PM10.6 °F6.1 °F82 %30.08 inSSE (160°)1.2 mph
10:00 PM11.5 °F6.8 °F81 %30.07 inWSW (240°)3.5 mph
11:00 PM13.1 °F9.1 °F84 %30.02 inSouth (180°)3.5 mph
Hourly data recorded from CWJX, located miles away from Leader, Saskatchewan







STORIES FROM OUR PARTNERS